User: anonymous   Login
Location: Unspecified
(0.0000°N, 0.0000°E)
Time: 06:00:46
(UTC+00:00)
Language:

MetOp-A - Orbit

View from above orbital plane
View from above orbital plane
View from above satellite
View from above satellite

Ground track
Ground track

The orbit data is extracted from the following two-line orbital elements,

1 29499U 06044A   18110.62290265 -.00000002 +00000-0 +18577-4 0  9995
2 29499 098.6329 169.3822 0001581 062.5600 092.7399 14.21518974596637
Epoch (UTC): 20 April 2018 14:56:58
Eccentricity: 0.0001581
inclination: 98.6329°
perigee height: 819 km
apogee height: 821 km
right ascension of ascending node: 169.3822°
argument of perigee: 62.5600°
revolutions per day: 14.21518974
mean anomaly at epoch: 92.7399°
orbit number at epoch: 59663

The dashed part of the orbit path shows where the satellite is in the earth's shadow,  

DLR